Flag for Norway Weather past 2 weeks in Mosjøen, Norway

Now
48 °F

Cool.


Feels Like: 48 °F
Forecast: 50 / 53 °F
Wind: No wind

Location: Mosjoen Kjaerstad

Current Time: Jul 29, 2015 at 3:41:22 AM

Latest Report: Jul 29, 2015 at 3:00 AM


Visibility: N/A

Pressure: 29.65 "Hg

Humidity: 92%

Dew point: 46 °F

Location of MosjøenLocation

Historic Weather in Mosjøen — Graph

°F

Mosjøen temperature yesterday

Maximum temperature yesterday: 66 °F (at 5:00 PM)
Minimum temperature yesterday: 53 °F (at 3:00 AM)
Average temperature yesterday: 59 °F

Past Weeks' High & Low Weather Summary

 TemperatureHumidityPressure
High68 °F (Jul 22, 1:00 PM)96% (Jul 26, 5:00 AM)29.98 "Hg (Jul 26, 5:00 AM)
Low40 °F (Jul 26, 4:00 AM)40% (Jul 20, 2:00 PM)29.26 "Hg (Jul 27, 7:00 AM)
Average53 °F78%29.70 "Hg
* Reported Jul 14 2:00 AM — Jul 29 2:00 AM, Mosjøen, Weather by CustomWeather, © 2015

Note: Actual official high and low records may vary slightly from our data, if they occured in-between our weather recording intervals... More about our weather records

Advertising

Mosjøen weather history for previous 24 hours

 ConditionsComfort  
Time TempWeatherWind HumidityBarometerVisibility
2:00 AM
Wed, Jul 29
49 °FCool.No wind92%29.64 "HgN/A
1:00 AM48 °FCool.No wind91%29.64 "HgN/A
12:00 AM50 °FCool.No wind89%29.63 "HgN/A
10:00 PM
Tue, Jul 28
56 °FCool.2 mph78%29.62 "HgN/A
9:00 PM58 °FCool.5 mph71%29.60 "HgN/A
8:00 PM60 °FCool.5 mph65%29.59 "HgN/A
7:00 PM62 °FCool.5 mph62%29.58 "HgN/A
6:00 PM66 °FMild.2 mph48%29.58 "HgN/A
5:00 PM66 °FMild.3 mph44%29.58 "HgN/A
4:00 PM65 °FMild.3 mph43%29.58 "HgN/A
3:00 PM63 °FMild.6 mph47%29.58 "HgN/A
2:00 PM65 °FMild.5 mph43%29.58 "HgN/A
1:00 PM64 °FMild.5 mph45%29.58 "HgN/A
12:00 PM62 °FRefreshingly cool.6 mph48%29.58 "HgN/A
11:00 AM59 °FRefreshingly cool.5 mph58%29.58 "HgN/A
10:00 AM58 °FCool.6 mph61%29.57 "HgN/A
8:00 AM56 °FCool.3 mph69%29.55 "HgN/A
7:00 AM54 °FCool.5 mph75%29.53 "HgN/A
6:00 AM54 °FCool.6 mph75%29.50 "HgN/A
5:00 AM54 °FCool.5 mph76%29.47 "HgN/A
4:00 AM54 °FCool.7 mph76%29.47 "HgN/A
3:00 AM53 °FCool.6 mph81%29.47 "HgN/A
Weather by CustomWeather, © 2015

See weather overviewHow to use our weather pages